User: anonymous   Login
Location: Unspecified
(0.0000°N, 0.0000°E)
Time: 06:47:50
(UTC+00:00)
Language:

AEHF 1 (USA 214) - Orbit

View from above orbital plane
View from above orbital plane
View from above satellite
View from above satellite

Ground track
Ground track

The orbit data is extracted from the following two-line orbital elements,

1 36868U 10039A   16314.66725659 0.00000000  00000-0  00000-0 0    08
2 36868   0.6387 221.8530 0004226 220.0757 139.9035  1.00270000    05
Epoch (UTC): 09 November 2016 16:00:50
Eccentricity: 0.0004226
inclination: 0.6387°
perigee height: 35769 km
apogee height: 35804 km
right ascension of ascending node: 221.8530°
argument of perigee: 220.0757°
revolutions per day: 1.00270000
mean anomaly at epoch: 139.9035°
orbit number at epoch: 0

The dashed part of the orbit path shows where the satellite is in the earth's shadow,  

DLR